[[{"header":{"parameterUnit":"m.s-1","parameterCategory":1,"la1":30.2991,"la2":30.254,"lo1":-89.0895,"lo2":-89.0444,"dy":0.0017,"dx":0.0017,"nx":28,"ny":28,"refTime":"2025-12-20T03:00:00:Z","depth":0,"parameterNumber":2,"parameterNumberName":"U-component_of_WINDS"},"data":[0,0,0,0,0,0,0,0,0,0,0,0,0,0,0,0,0,0,0,0,0,0,0,0,0,0,0,0,0,0,0,0,0,0,0,0,0,0,0,0,0,0,0,0,0,0,0,0,0,0,0,0,0,0,0,0,0,0,-2.5807,-2.5807,0,-2.5861,-2.5861,-2.5862,-2.5868,-2.5867,-2.5867,-2.5866,-2.5919,-2.5921,-2.5923,0,0,0,0,0,0,0,0,0,0,0,0,0,-2.5707,-2.5709,-2.5807,-2.5808,-2.5808,-2.5861,-2.5861,-2.5862,-2.5868,-2.5867,-2.5866,-2.5866,-2.5919,-2.5921,-2.5923,0,0,0,0,0,0,0,0,0,0,0,0,0,-2.5754,-2.5709,-2.5807,-2.5817,-2.5819,-2.586,-2.5861,-2.5862,-2.5868,-2.5867,-2.5866,-2.5865,-2.5918,-2.5921,-2.5923,-2.5957,0,0,-2.5932,-2.5933,0,0,0,0,0,0,0,0,-2.5752,-2.5758,-2.5815,-2.5817,-2.5818,-2.5857,-2.5845,-2.5894,-2.5868,-2.5849,-2.5866,-2.5865,-2.5899,-2.5903,-2.5915,-2.596,-2.5962,-2.5932,-2.5934,-2.5935,-2.5936,0,0,0,0,0,0,0,-2.5748,-2.5756,-2.5828,-2.5816,-2.5818,-2.5819,-2.5825,-2.5855,-2.5878,-2.5851,-2.5851,-2.5858,-2.59,-2.5912,-2.5916,-2.5963,-2.5932,-2.5935,-2.5937,-2.5938,-2.6037,-2.6038,0,0,0,0,0,0,-2.5743,-2.5753,-2.5826,-2.583,-2.5782,-2.5821,-2.5828,-2.5845,-2.5878,-2.5882,-2.5858,-2.5858,-2.5908,-2.5913,-2.5918,-2.5959,-2.5935,-2.5938,-2.594,-2.6036,-2.6037,-2.6038,0,0,0,0,0,0,-2.5741,-2.575,-2.5824,-2.5791,-2.5801,-2.5824,-2.5843,-2.5847,-2.5859,-2.5883,-2.5887,-2.5867,-2.5907,-2.5914,-2.5947,-2.5961,-2.5939,-2.5942,-2.6035,-2.6036,-2.6038,-2.6041,0,0,0,0,0,0,-2.5738,-2.5749,-2.5763,-2.5792,-2.5803,-2.5853,-2.5844,-2.5848,-2.5864,-2.5864,-2.5893,-2.5897,-2.5907,-2.5943,-2.595,-2.5965,-2.5944,-2.6034,-2.6036,-2.6037,-2.604,-2.6043,-2.6045,0,0,0,0,0,-2.5735,-2.5762,-2.5763,-2.5772,-2.582,-2.5854,-2.586,-2.5872,-2.5866,-2.5879,-2.5894,-2.5896,-2.5959,-2.5946,-2.5955,-2.597,-2.6033,-2.6035,-2.6037,-2.6039,-2.6042,-2.6045,0,0,0,0,0,0,-2.5733,-2.5766,-2.5768,-2.5805,-2.5827,-2.5855,-2.5872,-2.5876,-2.5899,-2.5898,-2.5912,-2.5918,-2.595,-2.5964,-2.595,-2.6004,-2.5995,-2.5999,-2.5994,-2.5997,-2.5999,-2.5995,-2.5947,0,0,0,0,0,-2.5737,-2.5762,-2.5789,-2.5819,-2.583,-2.5849,-2.5864,-2.5872,-2.5895,-2.5904,-2.5921,-2.5943,-2.5967,-2.5983,-2.6007,-2.6043,-2.6048,-2.6057,-2.6059,-2.6061,-2.6064,-2.6082,-2.6086,-2.6045,-2.6045,-2.6045,0,0,-2.5745,-2.5766,-2.5781,-2.5819,-2.5837,-2.5862,-2.5857,-2.5884,-2.5902,-2.5908,-2.594,-2.5954,-2.5978,-2.6012,-2.6028,-2.6025,-2.6077,-2.6064,-2.6065,-2.6067,-2.6085,-2.6089,-2.6092,-2.6046,-2.6046,-2.6046,0,0,-2.5773,-2.5792,-2.5819,-2.5836,-2.5863,-2.5876,-2.5882,-2.591,-2.5919,-2.5952,-2.5957,-2.5978,-2.6021,-2.6038,-2.6052,-2.6086,-2.6087,-2.6093,-2.6105,-2.6123,-2.6126,-2.6129,-2.614,-2.6143,-2.6096,-2.6096,-2.6096,0,-2.578,-2.5818,-2.5832,-2.5858,-2.5874,-2.5881,-2.5907,-2.5924,-2.5957,-2.5967,-2.5963,-2.6016,-2.6033,-2.6071,-2.6079,-2.6091,-2.6097,-2.6089,-2.6125,-2.6128,-2.6131,-2.6141,-2.6145,-2.6096,-2.6096,-2.6096,-2.6096,0,-2.5824,-2.585,-2.5869,-2.5901,-2.5919,-2.5945,-2.5962,-2.5979,-2.5985,-2.5998,-2.603,-2.6051,-2.6079,-2.6089,-2.6095,-2.6127,-2.6124,-2.6122,-2.6113,-2.6135,-2.6144,-2.6149,-2.6097,-2.6097,-2.6097,-2.6097,0,0,-2.5851,-2.5891,-2.5897,-2.5911,-2.5941,-2.5961,-2.5988,-2.6015,-2.6029,-2.6051,-2.6073,-2.6108,-2.6107,-2.6123,-2.6131,-2.6147,-2.617,-2.6143,-2.6144,-2.6146,-2.6205,-2.6206,-2.621,-2.6172,-2.6173,-2.6174,-2.6203,0,-2.5881,-2.5928,-2.5941,-2.5981,-2.6005,-2.6012,-2.6034,-2.6055,-2.6067,-2.6089,-2.6103,-2.6127,-2.6124,-2.6133,-2.6149,-2.6164,-2.6182,-2.6162,-2.6191,-2.6192,-2.6183,-2.6215,-2.6216,-2.6242,-2.6207,-2.6208,-2.6208,0,-2.5922,-2.5946,-2.5988,-2.6014,-2.6024,-2.6045,-2.607,-2.6091,-2.6114,-2.6122,-2.614,-2.6147,-2.6173,-2.6164,-2.62,-2.6186,-2.6199,-2.6208,-2.6209,-2.6211,-2.62,-2.6217,-2.6251,-2.6255,-2.6215,-2.6214,-2.6214,0,-2.5936,-2.5978,-2.6009,-2.6021,-2.6053,-2.6066,-2.608,-2.6102,-2.6118,-2.6141,-2.615,-2.6176,-2.6189,-2.6208,-2.6221,-2.6214,-2.6256,-2.6248,-2.6262,-2.6262,-2.627,-2.6269,-2.6305,-2.628,-2.628,-2.628,-2.628,0,-2.5967,-2.5992,-2.6015,-2.6034,-2.6061,-2.6076,-2.6103,-2.6117,-2.6137,-2.6157,-2.6165,-2.6184,-2.6201,-2.6222,-2.6232,-2.626,-2.6266,-2.6273,-2.6275,-2.6271,-2.627,-2.6279,-2.6276,-2.6281,-2.6281,-2.6281,-2.628,0,-2.5986,-2.6003,-2.6036,-2.6064,-2.6071,-2.6091,-2.6114,-2.6131,-2.6145,-2.617,-2.6177,-2.6198,-2.6223,-2.6238,-2.627,-2.6277,-2.6307,-2.6309,-2.6299,-2.6299,-2.6312,-2.631,-2.6354,-2.636,-2.6332,-2.6333,-2.6333,0,-2.6005,-2.6024,-2.6054,-2.6068,-2.6082,-2.6106,-2.6122,-2.6137,-2.6153,-2.618,-2.6194,-2.622,-2.6241,-2.6281,-2.6298,-2.6322,-2.6324,-2.6338,-2.6328,-2.6323,-2.6322,-2.6321,-2.6322,-2.6339,-2.6339,-2.6339,-2.6339,0,-2.6034,-2.6041,-2.6064,-2.609,-2.6109,-2.613,-2.6151,-2.6162,-2.618,-2.6198,-2.6224,-2.624,-2.6273,-2.6298,-2.6323,-2.6337,-2.6341,-2.6343,-2.6347,-2.6343,-2.6336,-2.6338,-2.6302,-2.6341,-2.6341,-2.6341,-2.6341,-2.6341,-2.6053,-2.607,-2.6093,-2.6118,-2.6135,-2.6154,-2.6172,-2.6188,-2.621,-2.6237,-2.6245,-2.6272,-2.6294,-2.6328,-2.6342,-2.6363,-2.6361,-2.6367,-2.6369,-2.637,-2.6369,-2.6334,-2.6368,-2.6368,-2.6368,-2.6368,-2.6368,0,-2.6082,-2.6097,-2.612,-2.6149,-2.6168,-2.6171,-2.6194,-2.621,-2.6234,-2.6254,-2.6275,-2.6304,-2.6328,-2.6347,-2.6372,-2.6385,-2.6387,-2.6391,-2.6389,-2.6392,-2.6371,-2.6364,-2.6388,-2.6388,-2.6388,-2.6388,-2.6388,-2.6388,-2.6099,-2.6128,-2.6138,-2.6175,-2.619,-2.6216,-2.6229,-2.6246,-2.6262,-2.6295,-2.6315,-2.6328,-2.6347,-2.6373,-2.6395,-2.64,-2.6408,-2.6411,-2.6416,-2.6396,-2.6394,-2.6391,-2.6385,-2.6413,-2.6413,-2.6436,-2.6436,-2.6436]},{"header":{"parameterUnit":"m.s-1","parameterCategory":1,"la1":30.2991,"la2":30.254,"lo1":-89.0895,"lo2":-89.0444,"dy":0.0017,"dx":0.0017,"nx":28,"ny":28,"refTime":"2025-12-20T03:00:00:Z","depth":0,"parameterNumber":3,"parameterNumberName":"V-component_of_WINDS"},"data":[0,0,0,0,0,0,0,0,0,0,0,0,0,0,0,0,0,0,0,0,0,0,0,0,0,0,0,0,0,0,0,0,0,0,0,0,0,0,0,0,0,0,0,0,0,0,0,0,0,0,0,0,0,0,0,0,0,0,1.2784,1.2785,0,1.2882,1.2883,1.2884,1.2874,1.2873,1.2871,1.287,1.2975,1.2979,1.2983,0,0,0,0,0,0,0,0,0,0,0,0,0,1.2595,1.2598,1.2784,1.2785,1.2786,1.2882,1.2883,1.2885,1.2874,1.2873,1.2871,1.2869,1.2973,1.2978,1.2983,0,0,0,0,0,0,0,0,0,0,0,0,0,1.2684,1.26,1.2784,1.2793,1.2794,1.2882,1.2883,1.2885,1.2875,1.2872,1.287,1.2868,1.2972,1.2978,1.2984,1.307,0,0,1.3003,1.3006,0,0,0,0,0,0,0,0,1.2678,1.269,1.279,1.2792,1.2794,1.2863,1.2855,1.2947,1.2875,1.2844,1.287,1.2867,1.294,1.2949,1.2972,1.3075,1.3079,1.3004,1.3008,1.3011,1.3012,0,0,0,0,0,0,0,1.2672,1.2686,1.2823,1.2792,1.2794,1.2794,1.2804,1.2873,1.2904,1.2847,1.2846,1.2858,1.2941,1.2966,1.2975,1.3081,1.3004,1.301,1.3013,1.3016,1.3265,1.3268,0,0,0,0,0,0,1.2663,1.2681,1.282,1.2826,1.2729,1.28,1.2811,1.2844,1.2903,1.291,1.286,1.2857,1.2956,1.2967,1.2978,1.3087,1.3011,1.3017,1.302,1.3262,1.3266,1.3269,0,0,0,0,0,0,1.2659,1.2676,1.2816,1.2754,1.2771,1.2805,1.2842,1.2847,1.2872,1.2913,1.2919,1.288,1.2955,1.2969,1.3048,1.309,1.3019,1.3025,1.3259,1.3263,1.3267,1.3302,0,0,0,0,0,0,1.2654,1.2674,1.2705,1.2754,1.2775,1.2882,1.2845,1.285,1.2883,1.288,1.2933,1.294,1.2954,1.3039,1.3055,1.3098,1.303,1.3256,1.3261,1.3266,1.3298,1.3307,1.3315,0,0,0,0,0,1.2647,1.2711,1.2707,1.2724,1.2814,1.2884,1.2896,1.291,1.2886,1.292,1.2946,1.2938,1.3083,1.3047,1.3065,1.311,1.3253,1.3259,1.3266,1.3294,1.3305,1.3315,0,0,0,0,0,0,1.2667,1.2717,1.2713,1.2795,1.2835,1.2882,1.2924,1.2921,1.297,1.2966,1.2983,1.2995,1.3076,1.31,1.306,1.32,1.3165,1.3175,1.318,1.3192,1.32,1.3194,1.3036,0,0,0,0,0,1.268,1.2731,1.2774,1.2842,1.2862,1.289,1.2921,1.2928,1.2972,1.2989,1.3021,1.3065,1.3121,1.3157,1.3211,1.3301,1.3315,1.3341,1.335,1.3357,1.3367,1.3421,1.3435,1.329,1.3289,1.3289,0,0,1.2709,1.2743,1.2775,1.2847,1.2879,1.2934,1.2904,1.2963,1.3005,1.2998,1.3076,1.3101,1.3152,1.3238,1.3277,1.3261,1.341,1.3365,1.3371,1.3376,1.3429,1.3443,1.3455,1.3294,1.3293,1.3292,0,0,1.2791,1.282,1.2882,1.2916,1.2965,1.2984,1.2999,1.3047,1.3064,1.3141,1.3139,1.319,1.3285,1.3322,1.3354,1.3454,1.3451,1.3471,1.3518,1.3571,1.3583,1.3593,1.3633,1.3647,1.348,1.348,1.348,0,1.2822,1.2903,1.2915,1.2975,1.3009,1.3005,1.307,1.3102,1.3167,1.3192,1.3172,1.3294,1.3327,1.3424,1.3449,1.3473,1.3494,1.3466,1.358,1.359,1.36,1.3639,1.3653,1.3482,1.3482,1.3482,1.3482,0,1.294,1.2997,1.3041,1.3104,1.3142,1.3205,1.3229,1.3267,1.3272,1.3294,1.3376,1.3416,1.3479,1.3502,1.3507,1.3602,1.3591,1.3576,1.3542,1.3616,1.3653,1.3668,1.3486,1.3485,1.3484,1.3484,0,0,1.3036,1.3106,1.3123,1.3153,1.3209,1.3255,1.3319,1.338,1.3415,1.346,1.3517,1.3599,1.3586,1.3622,1.3632,1.3678,1.3761,1.3657,1.3659,1.3678,1.3873,1.3887,1.3903,1.3758,1.376,1.3763,1.387,0,1.3126,1.3238,1.3252,1.3353,1.3408,1.3407,1.3464,1.3506,1.3529,1.3581,1.3607,1.3666,1.3643,1.3665,1.371,1.3741,1.38,1.3733,1.3815,1.3817,1.3805,1.3921,1.3935,1.4034,1.3884,1.3886,1.3888,0,1.3245,1.3295,1.3401,1.3453,1.3477,1.3527,1.3588,1.3636,1.3686,1.37,1.3742,1.3747,1.3817,1.3779,1.3879,1.3832,1.3867,1.3887,1.3892,1.3902,1.3859,1.3938,1.4066,1.4082,1.391,1.3908,1.3907,0,1.331,1.3403,1.348,1.3505,1.3567,1.3603,1.3631,1.3678,1.3716,1.3769,1.3794,1.3855,1.3889,1.3937,1.396,1.3929,1.406,1.4023,1.4077,1.4077,1.4106,1.4105,1.4244,1.4123,1.4123,1.4123,1.4122,0,1.341,1.3476,1.351,1.3557,1.3633,1.365,1.3725,1.3752,1.3795,1.385,1.3852,1.3905,1.393,1.3988,1.4006,1.4089,1.4103,1.4119,1.4124,1.4121,1.4119,1.4145,1.414,1.4127,1.4126,1.4125,1.4124,0,1.3495,1.352,1.3604,1.3657,1.3672,1.3725,1.3772,1.382,1.3843,1.3913,1.3931,1.3968,1.4036,1.4063,1.4146,1.4159,1.4256,1.4253,1.4239,1.4241,1.4295,1.4291,1.4459,1.4484,1.4343,1.4345,1.4346,0,1.3559,1.361,1.3669,1.3706,1.3735,1.3793,1.3832,1.3853,1.3893,1.3956,1.3998,1.4066,1.4121,1.4231,1.4267,1.4332,1.4334,1.4388,1.4343,1.434,1.4339,1.4337,1.4345,1.4397,1.4398,1.44,1.44,0,1.3672,1.3682,1.3737,1.3798,1.3844,1.3893,1.394,1.3971,1.3999,1.4046,1.4115,1.4158,1.4244,1.4314,1.4381,1.4413,1.4414,1.4414,1.4431,1.443,1.4421,1.4431,1.4265,1.4411,1.441,1.4409,1.4408,1.4408,1.3751,1.3798,1.3847,1.391,1.3948,1.3994,1.4043,1.4073,1.413,1.4202,1.421,1.4286,1.4339,1.443,1.4465,1.4527,1.4513,1.4536,1.4543,1.4549,1.4555,1.4409,1.4539,1.4539,1.4539,1.4538,1.4538,0,1.3867,1.3899,1.3956,1.4024,1.4074,1.4068,1.4122,1.4166,1.4232,1.428,1.4335,1.4418,1.4486,1.4528,1.4598,1.464,1.4642,1.4658,1.4656,1.4665,1.4561,1.4542,1.4655,1.4655,1.4655,1.4655,1.4655,1.4655,1.3933,1.4014,1.4031,1.4133,1.4165,1.4239,1.4271,1.4314,1.4354,1.4445,1.4502,1.4528,1.4576,1.465,1.4714,1.4725,1.4752,1.4769,1.478,1.4683,1.4671,1.466,1.4642,1.4774,1.4774,1.4879,1.488,1.4881]}]]